This is the latest recevied weather packets stored in our database for station/object K6TTR. If no packets are shown the sender has not sent any weather packets the latest 10 day(s).
| Time | Temp. | Humidity | Pressure | Rain* | Wind** | Luminosity | Snow |
|---|---|---|---|---|---|---|---|
| 1777749822 | 16.67° C | 52% | 1016.4 hPa | 0 mm | - | 332 W/m² | - |
| 1777749529 | 16.67° C | 53% | 1016.3 hPa | 0 mm | - | 408 W/m² | - |
| 1777749213 | 16.67° C | 54% | 1016.4 hPa | 0 mm | - | 364 W/m² | - |
| 1777748919 | 16.11° C | 57% | 1016.3 hPa | 0 mm | - | 555 W/m² | - |
| 1777748624 | 16.11° C | 57% | 1016.4 hPa | 0 mm | - | 387 W/m² | - |
| 1777748329 | 15.56° C | 59% | 1016.4 hPa | 0 mm | - | 464 W/m² | - |
| 1777748012 | 15.56° C | 62% | 1016.3 hPa | 0 mm | - | 343 W/m² | - |
| 1777747717 | 15° C | 62% | 1016.2 hPa | 0 mm | - | 420 W/m² | - |
| 1777747422 | 15° C | 64% | 1016.3 hPa | 0 mm | - | 404 W/m² | - |
| 1777747129 | 15° C | 66% | 1016.4 hPa | 0 mm | - | 455 W/m² | - |
| 1777746815 | 15° C | 66% | 1016.4 hPa | 0 mm | - | 327 W/m² | - |
| 1777746520 | 15° C | 66% | 1016.4 hPa | 0 mm | - | 383 W/m² | - |
| 1777746224 | 14.44° C | 65% | 1016.3 hPa | 0 mm | - | 434 W/m² | - |
| 1777745929 | 14.44° C | 64% | 1016.4 hPa | 0 mm | - | 297 W/m² | - |
| 1777745613 | 13.89° C | 64% | 1016.4 hPa | 0 mm | - | 292 W/m² | - |
| 1777745319 | 13.89° C | 65% | 1016.4 hPa | 0 mm | - | 272 W/m² | - |
| 1777745024 | 13.89° C | 69% | 1016.4 hPa | 0 mm | - | 265 W/m² | - |
| 1777744728 | 13.33° C | 71% | 1016.4 hPa | 0 mm | - | 223 W/m² | - |
| 1777744413 | 13.33° C | 70% | 1016.4 hPa | 0 mm | - | 195 W/m² | - |
| 1777744118 | 13.33° C | 70% | 1016.2 hPa | 0 mm | - | 174 W/m² | - |
| 1777743823 | 13.33° C | 71% | 1016.2 hPa | 0 mm | - | 169 W/m² | - |
| 1777743528 | 12.78° C | 73% | 1016.2 hPa | 0 mm | - | 162 W/m² | - |
| 1777743212 | 12.78° C | 72% | 1016 hPa | 0 mm | - | 178 W/m² | - |
| 1777742913 | 12.22° C | 74% | 1016.1 hPa | 0 mm | - | 204 W/m² | - |
| 1777742618 | 12.22° C | 75% | 1016 hPa | 0 mm | - | 197 W/m² | - |
* Rain latest hour (hover to see other rain measurements)
** Current wind speed in m/s (hover to see current wind gust speed)